Weather in Bangued

Philippines     17°36′05″N   120°37′06″E
temp.,
°C
wind,
m/s
gust,
m/s
humid.,
%
clouds,
%
prec.,
mm/h
press.,
hPa
HPBL,
m
5 august, thu
thu523:00+26ssw7148783 1.4 1006694
02:00+26ssw7138997 2.3 1004715
05:00+25ssw6139394 2.4 1005792
08:00+26ssw7149292 5.5 10061009
11:00+27ssw9158997 4.9 10061140
14:00+28ssw10158678 7.6 10041265
17:00+27ssw81489100 2.5 10051058
20:00+26ssw81588100 8.8 1007698
6 august, fri
fri623:00+25s61488100 5.3 1007658
02:00+25ssw51390100 7.6 1006630
05:00+25ssw61392100 2.0 1006708
08:00+26ssw71489100 3.8 10071013
11:00+27ssw91488100 3.3 10071136
14:00+28ssw91486100 6.9 10061172
17:00+27ssw7138973 3.8 1006918
20:00+25ssw5129291 8.7 1007565
7 august, sat
sat723:00+24s2794100 3.5 1008216
02:00+25s4989100 3.9 1007342
05:00+24sse2392100 0.7 100775
08:00+27s41083100 0.8 1009619
11:00+28ssw9148298 1.3 10091174
14:00+29ssw9138099 3.1 10081202
17:00+27ssw6118658 1.7 1008887
20:00+25ssw4889100 3.3 1010295
8 august, sun
sun823:00+25sse2489100 0.1 1011100
02:00+24se2291100 0.2 100950
05:00+23e1191100 0.0 100929
08:00+26sse1381100 0.0 1010270
11:00+30sw697297 0.0 10101049
14:00+29sw71077100 1.9 1009891
17:00+27ssw4987100 3.1 1009496
20:00+25s3592100 4.9 1010133
9 august, mon
mon923:00+25sse2391100 0.8 101082
02:00+25sse2292100 0.8 100967
05:00+24ese1193100 0.3 100833
08:00+27se1383100 0.4 1009317
11:00+29sw687577 0.6 1009971
14:00+29sw687796 2.8 1007779
17:00+26ssw368898 3.1 1007302
20:00+25s3489100 5.4 1009114